Showing default

SES 10, 42432

Orbit data source: Space-Track

SES 10, 42432 is a payload satellite owned by SES Sat. Leasing (LU) in GEO that was launched on Thu, 30 Mar 2017 UTC via an FALCON 9 launch vehicle from the Air Force Eastern Test Range (AFETR). Payloads include a variety of satellites, spacecraft, and rockets equipped with specific instruments for various scientific and technological missions. These include communications satellites like Starlink; space stations such as the ISS; scientific satellites like the Hubble; Earth observation satellites from companies like Planet Labs, Umbra, and HawkEye 360; GPS; miniature CubeSats for education and research; and military/defense satellites.

Loading next visibility...
SES 10 details
Identifier
42432, 2017-017A
Orbit
GEO
Last TLE update1 day ago
Origin
Flag of LUSES Sat. Leasing (LU / SES)
ManufacturerADS/Bremen
MissionOperational Commercial Communications
Bus & MotorEUROSTAR 3000, R-4D-15
Mass5,300 kg wet, ~3,000 kg dry
Launch date (UTC)
2017-03-30 (8 years ago)
Launch vehicle
FALCON 9
Launch site
Air Force Eastern Test Range (AFETR)
Object type
Payload
Rocket body
Debris
Shape & HBRBox + 2 Pan, 35 m
Radar Cross Section56.564 m², Large (>1 m²)

Expand to show TLE details & history

TLE from 1 day ago
0 SES 10
1 42432U 17017A   24348.07410455 -.00000259  00000-0  00000-0 0  9995
2 42432   0.0277  45.0025 0002445 223.4931 133.5467  1.00275558 28213
Epoch: 2024-12-13T01:46Z
Definitive object data (Epoch: 2024-12-13T01:46:42.633Z)
Latitude0.01575°
Longitude-66.87237°
Altitude35,792.176 km
Speed3.074 km/s
True Right ascension02h 48m 12s
True Declination0° 00' 57"
Sunlit
Object was in daylight at TLE epoch
Visualization TLE readout
Latitude0.03896°
Longitude-17.11923°
Altitude35,795.482 km
Speed3.074 km/s
Apparent Right ascension06h 25m 18s
Apparent Declination-6° 00' 07"
Sunlit
Object is in daylight
Visualization observer readout
Local Sidereal Time03:34:14
Azimuth129.094° SE
Elevation29.53°
Doppler factor1
Orbital elements
Apogee altitude35,796.917 km
Perigee altitude35,776.298 km
Semi-major axis42,164.745 km
Eccentricity0.0002445
Inclination0.0277°
RAAN45.0025°
Arg. of periapsis223.4931°
True anomaly133.567°
Mean anomaly133.5467°
Eccentric anomaly133.55685°
Mean motion0.25068 °/min
BSTARUnknown
Orbital period1436.1 mins
Loading historical data...
42432 neighbors
Authenticating...
Loading maneuver chart data...
Loading historical data...
Loading historical data...
Loading historical data...
Loading historical data...
Loading historical data...
Loading historical data...
Loading historical data...
Other satellites on launch #17 in the year 2017 (2017-03-30 UTC)

SES 10 Visibility forecast

Observer location: undefined°, undefined

Span
Click to sort rows by Start time (UTC) header in descending order
Start Az.
Max El. time (UTC)
Max El. Az.
Max El.
End time (UTC)
End Az.
1440 mins2024-12-14 05:01:15.617Z129.108° SE2024-12-14 08:12:15.617Z129.129° SE26.237°2024-12-15 05:01:15.617Z129.09° SE
|